[[{"header":{"parameterUnit":"m.s-1","parameterCategory":1,"la1":30.2991,"la2":30.254,"lo1":-89.0895,"lo2":-89.0444,"dy":0.0017,"dx":0.0017,"nx":28,"ny":28,"refTime":"2024-07-26T09:00:00:Z","depth":0,"parameterNumber":2,"parameterNumberName":"U-component_of_WINDS"},"data":[0,0,0,0,0,0,0,0,0,0,0,0,0,0,0,0,0,0,0,0,0,0,0,0,0,0,0,0,0,0,0,0,0,0,0,0,0,0,0,0,0,0,0,0,0,0,0,0,0,0,0,0,0,0,0,0,0,0,2.215,2.2149,0,2.2045,2.2044,2.2043,2.1887,2.1884,2.1881,2.1879,2.1775,2.1774,2.1774,0,0,0,0,0,0,0,0,0,0,0,0,0,2.2218,2.2218,2.215,2.2149,2.2148,2.2045,2.2044,2.2042,2.1887,2.1884,2.1881,2.1878,2.1775,2.1774,2.1774,0,0,0,0,0,0,0,0,0,0,0,0,0,2.2159,2.2218,2.215,2.2058,2.2049,2.2045,2.2044,2.2042,2.1888,2.1884,2.188,2.1876,2.1775,2.1774,2.1774,2.1854,0,0,2.1773,2.1773,0,0,0,0,0,0,0,0,2.2162,2.2156,2.2073,2.2064,2.2054,2.1975,2.2029,2.1979,2.1889,2.1949,2.1879,2.1874,2.1845,2.1838,2.1828,2.1849,2.1845,2.1773,2.1773,2.1773,2.1773,0,0,0,0,0,0,0,2.2167,2.216,2.2109,2.2072,2.206,2.2022,2.2009,2.2019,2.1921,2.1944,2.1932,2.1922,2.1839,2.1829,2.1824,2.1843,2.1773,2.1773,2.1773,2.1772,2.1921,2.1925,0,0,0,0,0,0,2.2184,2.2164,2.2112,2.2105,2.2099,2.2024,2.2009,2.2004,2.1921,2.1904,2.1925,2.1915,2.1831,2.1825,2.182,2.1905,2.1773,2.1772,2.1772,2.1917,2.1922,2.1927,0,0,0,0,0,0,2.2186,2.2181,2.2116,2.2132,2.212,2.2027,2.2023,2.2004,2.1994,2.1907,2.1889,2.1932,2.1828,2.182,2.1846,2.19,2.1772,2.1772,2.1912,2.1919,2.1924,2.2079,0,0,0,0,0,0,2.2189,2.2183,2.2212,2.2133,2.212,2.2144,2.2026,2.2005,2.1993,2.1979,2.1909,2.1893,2.1824,2.1847,2.1845,2.1897,2.1772,2.1907,2.1915,2.1922,2.2068,2.209,2.2108,0,0,0,0,0,2.2192,2.2261,2.2214,2.2209,2.2155,2.2147,2.214,2.2057,2.1998,2.2027,2.197,2.1896,2.1894,2.1851,2.1848,2.19,2.1903,2.1913,2.1922,2.206,2.2085,2.2107,0,0,0,0,0,0,2.235,2.2249,2.2196,2.2242,2.2204,2.2121,2.2155,2.2088,2.2067,2.2054,2.1954,2.1939,2.1977,2.1941,2.1894,2.1971,2.1887,2.1896,2.1993,2.2017,2.2036,2.2043,2.1771,0,0,0,0,0,2.239,2.2392,2.2304,2.2353,2.2336,2.2249,2.2243,2.2182,2.214,2.2123,2.2069,2.2031,2.2021,2.2017,2.2004,2.2063,2.2044,2.2097,2.2117,2.2133,2.2142,2.2167,2.2189,2.1957,2.1957,2.1957,0,0,2.2474,2.2419,2.2426,2.2383,2.2347,2.235,2.2237,2.2247,2.2248,2.2125,2.2144,2.2103,2.2054,2.2096,2.2111,2.2067,2.2201,2.2145,2.2159,2.2158,2.2179,2.2201,2.2221,2.1964,2.1963,2.1962,0,0,2.2626,2.2586,2.2621,2.2586,2.2531,2.2472,2.2481,2.2407,2.2374,2.2392,2.2299,2.2299,2.2286,2.2254,2.2236,2.2374,2.2303,2.2373,2.2475,2.2501,2.2519,2.2534,2.2581,2.26,2.2382,2.2382,2.2383,0,2.2737,2.2738,2.2648,2.2662,2.2645,2.2532,2.2565,2.2537,2.2482,2.2472,2.2423,2.2401,2.2361,2.2392,2.2425,2.2415,2.2421,2.238,2.2523,2.2538,2.2551,2.2595,2.2613,2.2391,2.239,2.2389,2.2388,0,2.2875,2.2878,2.2913,2.2859,2.2847,2.2871,2.2784,2.2782,2.2722,2.2669,2.2687,2.2633,2.2606,2.2609,2.2552,2.2631,2.2605,2.2542,2.2455,2.2583,2.2622,2.2639,2.2403,2.24,2.2397,2.2395,0,0,2.3126,2.302,2.3035,2.3008,2.2938,2.2938,2.2957,2.2928,2.2928,2.2893,2.2905,2.2895,2.2834,2.2814,2.2752,2.2776,2.2885,2.2708,2.2705,2.2741,2.2966,2.3013,2.3034,2.2838,2.2841,2.2843,2.2969,0,2.3263,2.3288,2.3206,2.3252,2.3251,2.3143,2.3159,2.3118,2.3068,2.3061,2.3005,2.2999,2.2921,2.2907,2.2925,2.2868,2.2929,2.2858,2.2848,2.2848,2.2862,2.3055,2.3106,2.3227,2.2984,2.2987,2.2989,0,2.3427,2.3399,2.3444,2.3369,2.3366,2.3382,2.3347,2.3342,2.3293,2.3254,2.3231,2.3158,2.317,2.3088,2.3103,2.3056,2.3047,2.3018,2.3021,2.3016,2.2926,2.3053,2.3264,2.3282,2.3013,2.3011,2.3009,0,2.3602,2.3576,2.3598,2.3579,2.3493,2.3506,2.3471,2.3418,2.3405,2.3375,2.3366,2.3339,2.3324,2.3305,2.3226,2.3174,2.3249,2.3161,2.3217,2.3219,2.3237,2.3237,2.3448,2.3235,2.3235,2.3234,2.3234,0,2.3763,2.3795,2.3675,2.3689,2.372,2.3626,2.366,2.3614,2.3567,2.357,2.3475,2.348,2.3377,2.337,2.3309,2.3329,2.3324,2.3292,2.3275,2.33,2.3303,2.3291,2.328,2.3239,2.3238,2.3237,2.3236,0,2.3964,2.3885,2.3902,2.3819,2.3798,2.3825,2.3753,2.3762,2.3706,2.371,2.3706,2.3617,2.3604,2.3524,2.3493,2.3451,2.3493,2.346,2.3509,2.3498,2.3557,2.3552,2.3767,2.3789,2.3564,2.3567,2.3568,0,2.4071,2.4092,2.401,2.4004,2.3973,2.3966,2.3951,2.3859,2.3848,2.3792,2.3807,2.3786,2.3764,2.3748,2.3681,2.3656,2.362,2.3697,2.3616,2.3639,2.3619,2.3618,2.3618,2.3715,2.3717,2.372,2.3722,0,2.4268,2.4228,2.421,2.4179,2.4164,2.4135,2.41,2.4101,2.3999,2.3991,2.3975,2.3958,2.3925,2.3904,2.3867,2.3831,2.3759,2.3748,2.3759,2.3783,2.381,2.3794,2.3554,2.3743,2.3741,2.3739,2.3738,2.3737,2.4423,2.4436,2.4379,2.4362,2.4326,2.4296,2.4299,2.4242,2.4227,2.4192,2.4138,2.413,2.4077,2.402,2.3989,2.3981,2.394,2.3957,2.396,2.3966,2.3977,2.3813,2.3974,2.3973,2.3973,2.3972,2.3972,0,2.4614,2.4572,2.4557,2.451,2.4497,2.4429,2.4387,2.438,2.4373,2.433,2.431,2.4291,2.427,2.42,2.4172,2.4178,2.4145,2.4174,2.4172,2.4164,2.4017,2.4009,2.4202,2.4201,2.4201,2.4201,2.4201,2.4201,2.4711,2.4728,2.4681,2.4678,2.4636,2.4625,2.4607,2.4577,2.4542,2.4525,2.4506,2.4461,2.4407,2.4373,2.4351,2.433,2.4324,2.4364,2.4333,2.4197,2.4175,2.4154,2.4145,2.4364,2.4364,2.448,2.4481,2.4482]},{"header":{"parameterUnit":"m.s-1","parameterCategory":1,"la1":30.2991,"la2":30.254,"lo1":-89.0895,"lo2":-89.0444,"dy":0.0017,"dx":0.0017,"nx":28,"ny":28,"refTime":"2024-07-26T09:00:00:Z","depth":0,"parameterNumber":3,"parameterNumberName":"V-component_of_WINDS"},"data":[0,0,0,0,0,0,0,0,0,0,0,0,0,0,0,0,0,0,0,0,0,0,0,0,0,0,0,0,0,0,0,0,0,0,0,0,0,0,0,0,0,0,0,0,0,0,0,0,0,0,0,0,0,0,0,0,0,0,3.5645,3.5648,0,3.5873,3.5875,3.5878,3.5911,3.5909,3.5907,3.5905,3.6135,3.6143,3.6151,0,0,0,0,0,0,0,0,0,0,0,0,0,3.5236,3.5243,3.5645,3.5648,3.5651,3.5872,3.5875,3.5879,3.5912,3.5909,3.5907,3.5904,3.6133,3.6142,3.6152,0,0,0,0,0,0,0,0,0,0,0,0,0,3.5433,3.5246,3.5645,3.5694,3.5701,3.5872,3.5876,3.5879,3.5912,3.5909,3.5906,3.5903,3.613,3.6141,3.6153,3.629,0,0,3.619,3.6195,0,0,0,0,0,0,0,0,3.5422,3.5448,3.5684,3.5691,3.5699,3.5861,3.5816,3.6017,3.5913,3.5832,3.5905,3.5902,3.6046,3.6065,3.6114,3.6301,3.631,3.6191,3.6199,3.6204,3.6207,0,0,0,0,0,0,0,3.5409,3.5439,3.5735,3.5687,3.5696,3.5704,3.5728,3.5854,3.5954,3.5839,3.5842,3.5868,3.605,3.6103,3.612,3.6314,3.6191,3.6202,3.6209,3.6214,3.6622,3.6625,0,0,0,0,0,0,3.5386,3.5427,3.5728,3.5742,3.555,3.5714,3.5741,3.5812,3.5952,3.5971,3.5871,3.5869,3.6084,3.6106,3.6128,3.6296,3.6204,3.6215,3.6222,3.6618,3.6622,3.6626,0,0,0,0,0,0,3.5377,3.5413,3.5719,3.5586,3.5625,3.5724,3.5803,3.5818,3.5871,3.5977,3.5994,3.5907,3.6082,3.6111,3.6249,3.6305,3.622,3.6231,3.6614,3.6619,3.6624,3.6634,0,0,0,0,0,0,3.5365,3.5409,3.5463,3.5587,3.5632,3.5837,3.5806,3.5825,3.5892,3.5892,3.6015,3.6032,3.6082,3.6231,3.6261,3.632,3.6241,3.6609,3.6616,3.6623,3.6629,3.6639,3.6647,0,0,0,0,0,3.5351,3.5456,3.5466,3.5502,3.5701,3.584,3.5866,3.5922,3.5896,3.5951,3.6018,3.6029,3.6294,3.6245,3.6279,3.6342,3.6606,3.6614,3.6622,3.6625,3.6637,3.6647,0,0,0,0,0,0,3.5336,3.5474,3.5485,3.5634,3.5725,3.5845,3.5916,3.5933,3.6032,3.6028,3.6092,3.6119,3.6253,3.6312,3.6255,3.6481,3.6448,3.6463,3.6438,3.645,3.6459,3.6442,3.6251,0,0,0,0,0,3.5351,3.5453,3.5567,3.5687,3.5732,3.5816,3.5878,3.5913,3.601,3.6048,3.6126,3.6218,3.6322,3.639,3.6491,3.6638,3.6664,3.6698,3.6707,3.6714,3.6726,3.6806,3.6822,3.6653,3.6653,3.6652,0,0,3.5381,3.5469,3.5529,3.5686,3.5761,3.5864,3.5848,3.5958,3.6035,3.6065,3.62,3.626,3.6367,3.6509,3.6576,3.6562,3.6779,3.6724,3.6729,3.6738,3.6816,3.6832,3.6846,3.6658,3.6657,3.6656,0,0,3.5489,3.5566,3.5674,3.5749,3.5862,3.5917,3.5943,3.6061,3.6102,3.6239,3.6263,3.6354,3.6533,3.6608,3.6669,3.6804,3.6817,3.6836,3.6883,3.696,3.6974,3.6986,3.7033,3.7049,3.6847,3.6848,3.6848,0,3.5512,3.5669,3.5727,3.5836,3.5904,3.5937,3.6046,3.6115,3.6256,3.6301,3.6284,3.6508,3.6582,3.6742,3.6775,3.6824,3.6854,3.6821,3.6967,3.698,3.6992,3.7037,3.7055,3.6849,3.6849,3.6849,3.6849,0,3.5691,3.58,3.5873,3.6008,3.6085,3.6193,3.6266,3.6336,3.6364,3.642,3.6558,3.6649,3.6769,3.6809,3.6838,3.6973,3.696,3.6955,3.6922,3.7009,3.7052,3.707,3.6851,3.6851,3.685,3.685,0,0,3.5796,3.5962,3.5988,3.6049,3.6176,3.626,3.637,3.6488,3.6546,3.6641,3.6733,3.6883,3.6878,3.6948,3.6985,3.7053,3.7152,3.7039,3.7042,3.7056,3.7305,3.7307,3.7327,3.7162,3.7165,3.7168,3.7295,0,3.5918,3.6115,3.617,3.6335,3.6435,3.6467,3.6562,3.6649,3.6705,3.6797,3.6857,3.6962,3.6948,3.699,3.7059,3.7125,3.7203,3.7117,3.7246,3.725,3.7218,3.735,3.7354,3.7469,3.7313,3.7316,3.7318,0,3.6086,3.6185,3.6361,3.6474,3.6518,3.6603,3.6714,3.6803,3.6902,3.6937,3.7014,3.7045,3.7158,3.712,3.7277,3.7217,3.7273,3.7314,3.732,3.7333,3.7289,3.7365,3.7508,3.7525,3.7346,3.7343,3.7341,0,3.6143,3.6321,3.6449,3.65,3.6636,3.6694,3.6753,3.6849,3.6916,3.7014,3.7057,3.7167,3.7226,3.7309,3.7368,3.7335,3.7519,3.7486,3.755,3.7548,3.7587,3.7583,3.7738,3.7624,3.7624,3.7624,3.7623,0,3.6273,3.6379,3.6476,3.6554,3.6673,3.6735,3.6851,3.6911,3.6996,3.7086,3.712,3.7203,3.7276,3.7369,3.7415,3.7537,3.7564,3.7594,3.7605,3.7591,3.7587,3.7628,3.7621,3.7628,3.7627,3.7626,3.7626,0,3.6357,3.6427,3.6568,3.6684,3.6716,3.6798,3.6897,3.6974,3.703,3.7143,3.7173,3.7261,3.7372,3.7439,3.7579,3.761,3.7744,3.7752,3.771,3.7715,3.7775,3.7768,3.7961,3.7989,3.7857,3.7858,3.7859,0,3.6434,3.6517,3.6642,3.6705,3.6764,3.6865,3.6934,3.6997,3.7067,3.7186,3.7248,3.7361,3.7454,3.7629,3.7705,3.7811,3.7822,3.7882,3.7838,3.7821,3.7821,3.7815,3.7823,3.7889,3.789,3.7891,3.7892,0,3.6564,3.6594,3.6692,3.6802,3.6883,3.6973,3.7062,3.7111,3.7189,3.7266,3.738,3.7452,3.7595,3.7706,3.7819,3.7879,3.7898,3.7905,3.7926,3.7911,3.7883,3.7898,3.7729,3.7901,3.79,3.7899,3.7899,3.7898,3.6647,3.6721,3.682,3.6928,3.7001,3.7084,3.7161,3.7227,3.7323,3.7445,3.7476,3.7595,3.7691,3.7845,3.7907,3.8,3.7991,3.802,3.8028,3.8034,3.8034,3.7869,3.8021,3.8021,3.8021,3.8021,3.8021,0,3.6777,3.6843,3.6941,3.7064,3.7149,3.7161,3.7259,3.7329,3.7433,3.7522,3.7613,3.7743,3.7851,3.7935,3.8045,3.8103,3.8114,3.813,3.8125,3.8138,3.8037,3.8008,3.8118,3.8118,3.8118,3.8118,3.8118,3.8118,3.6855,3.698,3.7022,3.7184,3.7248,3.7366,3.7421,3.7496,3.7567,3.7711,3.7801,3.7855,3.7941,3.8058,3.8156,3.8178,3.8217,3.823,3.8253,3.8157,3.8146,3.8136,3.8109,3.8238,3.8238,3.8347,3.8348,3.8348]}]]